SJV859 WADL-WARR

Flight info

Callsign SJV859
Flight time 0h 57m
Altitude 28000
Route AGUNG W43 ENTAS
Aircraft A320/M-SDE3FGHIRWY/LB1

Departure

Time 2026-04-20 13:28
Airport Lombok International Airport (WADL)

Arrival

Time 2026-04-20 14:25
Airport Juanda International Airport (WARR)
Time Latitude Longitude Altitude Speed Heading
2026-04-20 13:08 -8.76082 116.27384 334 ft 0 kts 219°
2026-04-20 13:19 -8.76077 116.27388 328 ft 2 kts 217°
2026-04-20 13:19 -8.76064 116.27398 328 ft 2 kts 219°
2026-04-20 13:19 -8.76051 116.27409 332 ft 2 kts 219°
2026-04-20 13:19 -8.76038 116.27419 329 ft 2 kts 218°
2026-04-20 13:20 -8.76025 116.27430 331 ft 2 kts 220°
2026-04-20 13:20 -8.76014 116.27442 331 ft 2 kts 255°
2026-04-20 13:20 -8.76015 116.27455 332 ft 1 kts 303°
2026-04-20 13:20 -8.76016 116.27456 332 ft 0 kts 306°
2026-04-20 13:23 -8.76013 116.27453 333 ft 3 kts 306°
2026-04-20 13:23 -8.75981 116.27416 333 ft 12 kts 314°
2026-04-20 13:23 -8.75915 116.27331 332 ft 14 kts 315°
2026-04-20 13:23 -8.75815 116.27346 332 ft 14 kts 25°
2026-04-20 13:24 -8.75770 116.27312 330 ft 9 kts 304°
2026-04-20 13:24 -8.75725 116.27252 333 ft 12 kts 307°
2026-04-20 13:24 -8.75665 116.27177 328 ft 15 kts 309°
2026-04-20 13:24 -8.75593 116.27086 333 ft 18 kts 308°
2026-04-20 13:25 -8.75510 116.26983 329 ft 20 kts 309°
2026-04-20 13:25 -8.75416 116.26868 329 ft 22 kts 309°
2026-04-20 13:25 -8.75314 116.26741 332 ft 24 kts 309°
2026-04-20 13:25 -8.75212 116.26612 330 ft 19 kts 309°
2026-04-20 13:26 -8.75126 116.26506 331 ft 20 kts 310°
2026-04-20 13:26 -8.75025 116.26509 327 ft 15 kts 48°
2026-04-20 13:26 -8.74962 116.26560 324 ft 6 kts 72°
2026-04-20 13:26 -8.74981 116.26600 322 ft 8 kts 120°
2026-04-20 13:27 -8.74997 116.26624 324 ft 0 kts 127°
2026-04-20 13:27 -8.75093 116.26744 325 ft 59 kts 129°
2026-04-20 13:27 -8.75518 116.27273 329 ft 131 kts 129°
2026-04-20 13:28 -8.76216 116.28131 448 ft 175 kts 129°
2026-04-20 13:28 -8.76990 116.29093 1138 ft 178 kts 129°
2026-04-20 13:28 -8.77742 116.30038 2115 ft 167 kts 129°
2026-04-20 13:28 -8.78496 116.30974 2799 ft 180 kts 129°
2026-04-20 13:29 -8.79329 116.32008 3316 ft 200 kts 129°
2026-04-20 13:29 -8.80262 116.33169 3782 ft 224 kts 129°
2026-04-20 13:29 -8.81293 116.34450 4344 ft 245 kts 129°
2026-04-20 13:29 -8.82364 116.35853 4922 ft 264 kts 120°
2026-04-20 13:30 -8.82874 116.37633 5855 ft 264 kts 90°
2026-04-20 13:30 -8.82464 116.39370 7143 ft 250 kts 62°
2026-04-20 13:30 -8.81322 116.40634 8290 ft 245 kts 34°
2026-04-20 13:30 -8.79740 116.41326 9094 ft 251 kts 20°
2026-04-20 13:31 -8.78056 116.41870 9882 ft 256 kts 19°
2026-04-20 13:31 -8.76353 116.42426 10637 ft 258 kts 20°
2026-04-20 13:31 -8.74663 116.43019 11357 ft 261 kts 21°
2026-04-20 13:31 -8.72951 116.43653 12099 ft 264 kts 22°
2026-04-20 13:32 -8.71223 116.44314 12833 ft 267 kts 22°
2026-04-20 13:32 -8.69481 116.44988 13557 ft 270 kts 23°
2026-04-20 13:32 -8.67669 116.45548 14235 ft 274 kts
2026-04-20 13:32 -8.65757 116.45447 14869 ft 279 kts 345°
2026-04-20 13:33 -8.63999 116.44607 15472 ft 283 kts 322°
2026-04-20 13:33 -8.62627 116.43168 16084 ft 286 kts 309°
2026-04-20 13:33 -8.61359 116.41601 16710 ft 289 kts 309°
2026-04-20 13:33 -8.60073 116.40026 17326 ft 292 kts 309°
2026-04-20 13:34 -8.58768 116.38441 17936 ft 295 kts 310°
2026-04-20 13:34 -8.57449 116.36845 18505 ft 297 kts 310°
2026-04-20 13:34 -8.56136 116.35261 19051 ft 298 kts 310°
2026-04-20 13:34 -8.54800 116.33652 19584 ft 300 kts 310°
2026-04-20 13:35 -8.53455 116.32032 20110 ft 302 kts 310°
2026-04-20 13:35 -8.52102 116.30401 20640 ft 304 kts 310°
2026-04-20 13:35 -8.50735 116.28755 21123 ft 307 kts 310°
2026-04-20 13:35 -8.49359 116.27098 21646 ft 309 kts 310°
2026-04-20 13:36 -8.47970 116.25423 22102 ft 312 kts 310°
2026-04-20 13:36 -8.46567 116.23733 22594 ft 315 kts 310°
2026-04-20 13:36 -8.45149 116.22025 23072 ft 318 kts 310°
2026-04-20 13:36 -8.43600 116.20422 23537 ft 320 kts 318°
2026-04-20 13:37 -8.41953 116.18893 23937 ft 322 kts 317°
2026-04-20 13:37 -8.40305 116.17349 24347 ft 324 kts 317°
2026-04-20 13:37 -8.38650 116.15794 24754 ft 326 kts 317°
2026-04-20 13:37 -8.36985 116.14229 25126 ft 329 kts 317°
2026-04-20 13:38 -8.35306 116.12651 25510 ft 331 kts 318°
2026-04-20 13:38 -8.33616 116.11064 25875 ft 333 kts 318°
2026-04-20 13:38 -8.31912 116.09465 26248 ft 335 kts 318°
2026-04-20 13:38 -8.30202 116.07859 26626 ft 337 kts 318°
2026-04-20 13:39 -8.28481 116.06243 26988 ft 339 kts 318°
2026-04-20 13:39 -8.26765 116.04631 27319 ft 342 kts 318°
2026-04-20 13:39 -8.25019 116.02990 27670 ft 344 kts 318°
2026-04-20 13:39 -8.23248 116.01327 27865 ft 352 kts 318°
2026-04-20 13:40 -8.21424 115.99615 27906 ft 364 kts 318°
2026-04-20 13:40 -8.19538 115.97844 27898 ft 378 kts 318°
2026-04-20 13:40 -8.17580 115.96006 27899 ft 390 kts 318°
2026-04-20 13:40 -8.15558 115.94109 27901 ft 403 kts 318°
2026-04-20 13:41 -8.13588 115.92033 27906 ft 416 kts 311°
2026-04-20 13:41 -8.11836 115.89656 27908 ft 428 kts 303°
2026-04-20 13:41 -8.10271 115.87040 27890 ft 440 kts 302°
2026-04-20 13:41 -8.08678 115.84363 27895 ft 450 kts 302°
2026-04-20 13:42 -8.07049 115.81639 27903 ft 454 kts 302°
2026-04-20 13:42 -8.03787 115.76198 27897 ft 453 kts 302°
2026-04-20 13:42 -8.02160 115.73483 27896 ft 452 kts 302°
2026-04-20 13:43 -8.00588 115.70734 27896 ft 453 kts 298°
2026-04-20 13:43 -7.99314 115.67826 27896 ft 454 kts 291°
2026-04-20 13:43 -7.98384 115.64820 27907 ft 455 kts 284°
2026-04-20 13:43 -7.97719 115.61698 27900 ft 455 kts 282°
2026-04-20 13:44 -7.97070 115.58575 27899 ft 455 kts 283°
2026-04-20 13:44 -7.96413 115.55449 27908 ft 455 kts 283°
2026-04-20 13:44 -7.95976 115.53379 27898 ft 454 kts 283°
2026-04-20 13:44 -7.95317 115.50253 27902 ft 454 kts 283°
2026-04-20 13:45 -7.94436 115.46081 27906 ft 454 kts 283°
2026-04-20 13:45 -7.93786 115.43000 27903 ft 454 kts 283°
2026-04-20 13:45 -7.93130 115.39888 27902 ft 454 kts 283°
2026-04-20 13:45 -7.92473 115.36773 27910 ft 454 kts 283°
2026-04-20 13:46 -7.92035 115.34699 27905 ft 454 kts 283°
2026-04-20 13:46 -7.91157 115.30538 27903 ft 454 kts 283°
2026-04-20 13:46 -7.90720 115.28472 27906 ft 454 kts 283°
2026-04-20 13:46 -7.90063 115.25359 27897 ft 453 kts 283°
2026-04-20 13:47 -7.89403 115.22239 27911 ft 459 kts 283°
2026-04-20 13:47 -7.88730 115.19058 27897 ft 468 kts 283°
2026-04-20 13:47 -7.88045 115.15821 27897 ft 477 kts 283°
2026-04-20 13:47 -7.87347 115.12518 27907 ft 485 kts 282°
2026-04-20 13:48 -7.86637 115.09163 27911 ft 492 kts 282°
2026-04-20 13:48 -7.85926 115.05807 27897 ft 497 kts 282°
2026-04-20 13:48 -7.85194 115.02347 27904 ft 498 kts 282°
2026-04-20 13:48 -7.84480 114.98978 27905 ft 498 kts 282°
2026-04-20 13:49 -7.83756 114.95561 27891 ft 498 kts 282°
2026-04-20 13:49 -7.83032 114.92144 27898 ft 498 kts 282°
2026-04-20 13:49 -7.82306 114.88724 27898 ft 497 kts 282°
2026-04-20 13:49 -7.81583 114.85314 27897 ft 497 kts 282°
2026-04-20 13:50 -7.80858 114.81899 27894 ft 497 kts 282°
2026-04-20 13:50 -7.80133 114.78486 27902 ft 497 kts 283°
2026-04-20 13:50 -7.79408 114.75076 27891 ft 497 kts 283°
2026-04-20 13:50 -7.78690 114.71697 27897 ft 498 kts 283°
2026-04-20 13:51 -7.77965 114.68289 27893 ft 497 kts 283°
2026-04-20 13:51 -7.77239 114.64876 27901 ft 498 kts 283°
2026-04-20 13:51 -7.76513 114.61462 27897 ft 497 kts 283°
2026-04-20 13:51 -7.75784 114.58041 27901 ft 497 kts 283°
2026-04-20 13:52 -7.75058 114.54629 27899 ft 497 kts 283°
2026-04-20 13:52 -7.74329 114.51208 27901 ft 497 kts 283°
2026-04-20 13:52 -7.73601 114.47794 27900 ft 497 kts 283°
2026-04-20 13:52 -7.72875 114.44390 27904 ft 497 kts 283°
2026-04-20 13:53 -7.72200 114.41019 27907 ft 497 kts 279°
2026-04-20 13:53 -7.71835 114.37551 27901 ft 498 kts 273°
2026-04-20 13:53 -7.71836 114.34063 27910 ft 498 kts 267°
2026-04-20 13:53 -7.72194 114.30591 27899 ft 499 kts 262°
2026-04-20 13:54 -7.72689 114.27130 27901 ft 499 kts 262°
2026-04-20 13:54 -7.73173 114.23665 27904 ft 499 kts 263°
2026-04-20 13:54 -7.73653 114.20198 27905 ft 498 kts 263°
2026-04-20 13:54 -7.74133 114.16728 27910 ft 498 kts 263°
2026-04-20 13:55 -7.74613 114.13265 27907 ft 498 kts 263°
2026-04-20 13:55 -7.75054 114.09804 27915 ft 498 kts 265°
2026-04-20 13:55 -7.75185 114.06351 27910 ft 497 kts 271°
2026-04-20 13:55 -7.75035 114.02855 27916 ft 485 kts 273°
2026-04-20 13:56 -7.74883 113.99528 27910 ft 464 kts 273°
2026-04-20 13:56 -7.74745 113.96394 27912 ft 444 kts 273°
2026-04-20 13:56 -7.74612 113.93346 27909 ft 426 kts 273°
2026-04-20 13:56 -7.74484 113.90424 27916 ft 408 kts 273°
2026-04-20 13:57 -7.74360 113.87623 27917 ft 391 kts 273°
2026-04-20 13:57 -7.74240 113.84911 27912 ft 387 kts 273°
2026-04-20 13:57 -7.74117 113.82167 27911 ft 395 kts 273°
2026-04-20 13:57 -7.73993 113.79397 27903 ft 395 kts 273°
2026-04-20 13:58 -7.73869 113.76634 27701 ft 394 kts 273°
2026-04-20 13:58 -7.73746 113.73877 27454 ft 391 kts 273°
2026-04-20 13:58 -7.73623 113.71144 27211 ft 389 kts 273°
2026-04-20 13:58 -7.73501 113.68428 26966 ft 387 kts 273°
2026-04-20 13:59 -7.73379 113.65718 26728 ft 386 kts 273°
2026-04-20 13:59 -7.73258 113.63022 26486 ft 385 kts 273°
2026-04-20 13:59 -7.73138 113.60361 26253 ft 384 kts 273°
2026-04-20 13:59 -7.73017 113.57677 26018 ft 382 kts 273°
2026-04-20 14:00 -7.72858 113.55005 25786 ft 381 kts 277°
2026-04-20 14:00 -7.72408 113.52379 25556 ft 379 kts 284°
2026-04-20 14:00 -7.71737 113.49806 25213 ft 380 kts 285°
2026-04-20 14:00 -7.71072 113.47231 24899 ft 377 kts 284°
2026-04-20 14:01 -7.70423 113.44691 24671 ft 372 kts 284°
2026-04-20 14:01 -7.69779 113.42164 24443 ft 372 kts 284°
2026-04-20 14:01 -7.69134 113.39636 24231 ft 373 kts 284°
2026-04-20 14:01 -7.68487 113.37105 24016 ft 373 kts 284°
2026-04-20 14:02 -7.67840 113.34577 23786 ft 371 kts 284°
2026-04-20 14:02 -7.67196 113.32061 23576 ft 370 kts 284°
2026-04-20 14:02 -7.66551 113.29542 23336 ft 369 kts 284°
2026-04-20 14:02 -7.65910 113.27035 23081 ft 368 kts 284°
2026-04-20 14:03 -7.65295 113.24537 22820 ft 366 kts 281°
2026-04-20 14:03 -7.64811 113.22025 22571 ft 365 kts 281°
2026-04-20 14:03 -7.64330 113.19544 22322 ft 364 kts 281°
2026-04-20 14:03 -7.63843 113.17045 22069 ft 362 kts 281°
2026-04-20 14:04 -7.63358 113.14559 21819 ft 361 kts 281°
2026-04-20 14:04 -7.62873 113.12081 21646 ft 358 kts 281°
2026-04-20 14:04 -7.62393 113.09624 21313 ft 357 kts 281°
2026-04-20 14:04 -7.61913 113.07168 20881 ft 356 kts 281°
2026-04-20 14:05 -7.61434 113.04720 20423 ft 354 kts 281°
2026-04-20 14:05 -7.60965 113.02321 20016 ft 352 kts 281°
2026-04-20 14:05 -7.60491 112.99902 19594 ft 350 kts 281°
2026-04-20 14:05 -7.60021 112.97496 19171 ft 349 kts 281°
2026-04-20 14:06 -7.59552 112.95099 18774 ft 347 kts 281°
2026-04-20 14:06 -7.59086 112.92719 18372 ft 345 kts 281°
2026-04-20 14:06 -7.58622 112.90350 17955 ft 343 kts 281°
2026-04-20 14:06 -7.58162 112.88002 17658 ft 335 kts 281°
2026-04-20 14:07 -7.57722 112.85758 17469 ft 318 kts 281°
2026-04-20 14:07 -7.57299 112.83599 17022 ft 312 kts 281°
2026-04-20 14:07 -7.56881 112.81465 16451 ft 310 kts 281°
2026-04-20 14:07 -7.56467 112.79343 15920 ft 307 kts 281°
2026-04-20 14:08 -7.56062 112.77262 15405 ft 305 kts 281°
2026-04-20 14:08 -7.55657 112.75175 14879 ft 302 kts 281°
2026-04-20 14:08 -7.55254 112.73100 14372 ft 301 kts 281°
2026-04-20 14:08 -7.54852 112.71035 13864 ft 299 kts 281°
2026-04-20 14:09 -7.54453 112.68985 13340 ft 297 kts 281°
2026-04-20 14:09 -7.54055 112.66947 12792 ft 295 kts 281°
2026-04-20 14:09 -7.53658 112.64926 12264 ft 292 kts 281°
2026-04-20 14:09 -7.53265 112.62925 11747 ft 290 kts 281°
2026-04-20 14:10 -7.52874 112.60939 11240 ft 288 kts 281°
2026-04-20 14:10 -7.52487 112.58968 10740 ft 286 kts 281°
2026-04-20 14:10 -7.52101 112.57007 10347 ft 285 kts 281°
2026-04-20 14:10 -7.51716 112.55051 10019 ft 283 kts 281°
2026-04-20 14:11 -7.51339 112.53130 9700 ft 282 kts 281°
2026-04-20 14:11 -7.50958 112.51192 9344 ft 280 kts 281°
2026-04-20 14:11 -7.50581 112.49278 9009 ft 278 kts 281°
2026-04-20 14:11 -7.50206 112.47370 8663 ft 276 kts 281°
2026-04-20 14:12 -7.49834 112.45478 8334 ft 274 kts 281°
2026-04-20 14:12 -7.49464 112.43599 8006 ft 273 kts 281°
2026-04-20 14:12 -7.49097 112.41732 7682 ft 271 kts 281°
2026-04-20 14:12 -7.48731 112.39874 7357 ft 269 kts 281°
2026-04-20 14:13 -7.48367 112.38028 7045 ft 268 kts 281°
2026-04-20 14:13 -7.48006 112.36190 6732 ft 266 kts 281°
2026-04-20 14:13 -7.47646 112.34367 6427 ft 265 kts 281°
2026-04-20 14:13 -7.47278 112.32555 6116 ft 263 kts 284°
2026-04-20 14:14 -7.46425 112.30950 5770 ft 262 kts 314°
2026-04-20 14:14 -7.44921 112.29948 5426 ft 259 kts 343°
2026-04-20 14:14 -7.43150 112.29784 5085 ft 257 kts
2026-04-20 14:14 -7.41435 112.30181 4776 ft 255 kts 19°
2026-04-20 14:15 -7.39947 112.31089 4446 ft 251 kts 48°
2026-04-20 14:15 -7.39135 112.32580 4297 ft 237 kts 77°
2026-04-20 14:15 -7.38767 112.34142 4155 ft 221 kts 78°
2026-04-20 14:15 -7.38421 112.35594 4034 ft 206 kts 77°
2026-04-20 14:16 -7.38090 112.36962 3789 ft 198 kts 77°
2026-04-20 14:16 -7.37762 112.38306 3440 ft 197 kts 77°
2026-04-20 14:16 -7.37437 112.39633 3181 ft 191 kts 77°
2026-04-20 14:16 -7.37131 112.40877 3020 ft 173 kts 77°
2026-04-20 14:17 -7.36859 112.41984 3001 ft 165 kts 77°
2026-04-20 14:17 -7.36565 112.43187 2996 ft 182 kts 77°
2026-04-20 14:17 -7.36263 112.44426 2995 ft 183 kts 77°
2026-04-20 14:17 -7.35957 112.45674 2991 ft 183 kts 77°
2026-04-20 14:18 -7.35655 112.46908 2993 ft 183 kts 77°
2026-04-20 14:18 -7.35351 112.48152 2992 ft 183 kts 77°
2026-04-20 14:18 -7.35046 112.49397 2995 ft 183 kts 77°
2026-04-20 14:18 -7.34741 112.50643 2995 ft 183 kts 77°
2026-04-20 14:19 -7.34436 112.51888 2995 ft 183 kts 77°
2026-04-20 14:19 -7.34133 112.53132 2993 ft 183 kts 78°
2026-04-20 14:19 -7.34050 112.54401 2998 ft 182 kts 96°
2026-04-20 14:19 -7.34256 112.55663 2997 ft 183 kts 101°
2026-04-20 14:20 -7.34484 112.56924 2997 ft 182 kts 99°
2026-04-20 14:20 -7.34685 112.58177 3006 ft 181 kts 99°
2026-04-20 14:20 -7.34879 112.59385 2989 ft 159 kts 99°
2026-04-20 14:20 -7.35041 112.60389 2990 ft 137 kts 99°
2026-04-20 14:21 -7.35193 112.61332 2960 ft 137 kts 99°
2026-04-20 14:21 -7.35345 112.62275 2818 ft 135 kts 99°
2026-04-20 14:21 -7.35494 112.63204 2664 ft 134 kts 99°
2026-04-20 14:21 -7.35641 112.64115 2496 ft 133 kts 99°
2026-04-20 14:22 -7.35788 112.65034 2333 ft 133 kts 99°
2026-04-20 14:22 -7.35937 112.65953 2166 ft 133 kts 98°
2026-04-20 14:22 -7.36083 112.66867 1997 ft 131 kts 99°
2026-04-20 14:22 -7.36230 112.67780 1829 ft 133 kts 98°
2026-04-20 14:23 -7.36380 112.68713 1709 ft 135 kts 98°
2026-04-20 14:23 -7.36529 112.69637 1474 ft 130 kts 98°
2026-04-20 14:23 -7.36676 112.70550 1312 ft 133 kts 98°
2026-04-20 14:23 -7.36825 112.71474 1139 ft 133 kts 99°
2026-04-20 14:24 -7.36970 112.72377 977 ft 131 kts 98°
2026-04-20 14:24 -7.37111 112.73280 809 ft 133 kts 98°
2026-04-20 14:24 -7.37261 112.74199 647 ft 132 kts 98°
2026-04-20 14:24 -7.37412 112.75117 460 ft 133 kts 99°
2026-04-20 14:25 -7.37562 112.76032 312 ft 133 kts 98°
2026-04-20 14:25 -7.37704 112.76955 162 ft 134 kts 98°
2026-04-20 14:25 -7.37848 112.77873 11 ft 127 kts 99°
2026-04-20 14:25 -7.37954 112.78512 8 ft 47 kts 99°
2026-04-20 14:26 -7.38005 112.78822 9 ft 44 kts 99°
2026-04-20 14:26 -7.38043 112.79068 10 ft 19 kts 99°
2026-04-20 14:26 -7.38047 112.79211 11 ft 23 kts 79°
2026-04-20 14:26 -7.38003 112.79346 11 ft 15 kts 70°
2026-04-20 14:27 -7.37938 112.79405 9 ft 14 kts 15°
2026-04-20 14:27 -7.37862 112.79423 9 ft 5 kts 10°
2026-04-20 14:27 -7.37813 112.79431 9 ft 9 kts
2026-04-20 14:27 -7.37728 112.79445 9 ft 9 kts
2026-04-20 14:28 -7.37665 112.79456 9 ft 11 kts 12°
2026-04-20 14:28 -7.37591 112.79469 9 ft 0 kts
2026-04-20 14:28 -7.37587 112.79470 9 ft 0 kts